Weather History for Lawrenceville, IL

Change the Weather History Date:

Tuesday, January 8, 2013

  Actual Average Record
Temperature  
Mean Temperature 27 °F 31 °F  
Max Temperature 39 °F 39 °F 63 °F (2006)
Min Temperature 15 °F 23 °F 11 °F (2011)
Degree Days  
Heating Degree Days 38 34  
Month to date heating degree days 272  
Since 1 July heating degree days 2071  
Cooling Degree Days 0 0  
Month to date cooling degree days 0  
Year to date cooling degree days 0  
Moisture  
Dew Point 22 °F    
Average Humidity 85    
Maximum Humidity 100    
Minimum Humidity 70    
Precipitation  
Precipitation 0.00 in 0.08 in 1.14 in (2008)
Month to date precipitation 0.74  
Year to date precipitation 0.74  
Sea Level Pressure  
Sea Level Pressure 30.25 in    
Wind  
Wind Speed 4 mph (SSE)    
Max Wind Speed 10 mph    
Max Gust Speed -    
Visibility 3 miles    
Events Fog    
T = Trace of Precipitation, MM = Missing Value Source: NWS Daily Summary

Daily Weather History Graph

Daily Weather History Graph

Search for Another Location

Airport:

Trip Planner

Search our weather history database for the weather conditions in past years. The results will help you decide how hot, cold, wet, or windy it might be!

Date:

Astronomy

Jan. 08, 2013 Rise Set
Actual Time 7:08 AM CST 4:46 PM CST
Civil Twilight 6:39 AM CST 5:15 PM CST
Nautical Twilight 6:06 AM CST 5:48 PM CST
Astronomical Twilight 5:34 AM CST 6:20 PM CST
Moon 3:41 AM CST (1/8) 1:47 PM CST (1/8)
Length of Visible Light 10h 36m
Length of Day
9h 37m
Waning Crescent, 13% of the Moon is Illuminated
Jan 8
Waning Crescent
Jan 11
New
Jan 18
First Quarter
Jan 26
Full
Feb 3
Last Quarter

Hourly Weather History & Observations

Time (CST) Temp. Windchill Dew Point Humidity Pressure Visibility Wind Dir Wind Speed Gust Speed Precip Events Conditions
12:07 AM 19.4 °F 11.5 °F 17.6 °F 93% 30.23 in 0.8 mi SSE 5.8 mph - N/A   Clear
12:26 AM 17.6 °F 9.3 °F 15.8 °F 93% 30.23 in 1.5 mi SSE 5.8 mph - N/A   Clear
12:35 AM 17.6 °F 8.2 °F 15.8 °F 93% 30.23 in 2.0 mi SSE 6.9 mph - N/A   Clear
12:53 AM 19.0 °F - 15.1 °F 85% 30.24 in 2.5 mi Calm Calm - N/A   Clear
1:13 AM 21.2 °F 13.6 °F 17.6 °F 86% 30.22 in 3.0 mi South 5.8 mph - N/A   Clear
1:53 AM 21.9 °F 17.2 °F 18.0 °F 85% 30.25 in 3.0 mi South 3.5 mph - N/A   Clear
2:28 AM 19.4 °F - 15.8 °F 86% 30.23 in 2.5 mi Calm Calm - N/A   Clear
2:53 AM 21.0 °F - 18.0 °F 88% 30.25 in 2.0 mi Calm Calm - N/A   Clear
3:53 AM 19.9 °F 10.1 °F 16.0 °F 85% 30.25 in 2.5 mi South 8.1 mph - N/A   Clear
4:02 AM 23.0 °F 15.8 °F 19.4 °F 86% 30.23 in 3.0 mi South 5.8 mph - N/A   Clear
4:53 AM 18.0 °F - 16.0 °F 92% 30.25 in 3.0 mi Calm Calm - N/A   Clear
5:01 AM 19.4 °F - 15.8 °F 86% 30.24 in 2.5 mi Calm Calm - N/A   Clear
5:20 AM 21.2 °F - 19.4 °F 93% 30.24 in 3.0 mi Calm Calm - N/A   Clear
5:29 AM 17.6 °F - 15.8 °F 93% 30.24 in 2.0 mi Calm Calm - N/A   Clear
6:46 AM 17.6 °F - 15.8 °F 93% 30.27 in 0.8 mi Calm Calm - N/A   Clear
6:53 AM 16.0 °F - 12.9 °F 88% 30.29 in 0.5 mi Calm Calm - N/A Fog Light Freezing Fog
7:16 AM 15.8 °F 8.6 °F 14.0 °F 93% 30.27 in 0.2 mi ESE 4.6 mph - N/A Fog Light Freezing Fog
7:48 AM 17.6 °F 10.7 °F 15.8 °F 93% 30.27 in 0.2 mi SE 4.6 mph - N/A Fog Light Freezing Fog
7:53 AM 18.0 °F 11.1 °F 17.1 °F 96% 30.29 in 0.2 mi ESE 4.6 mph - N/A Fog Light Freezing Fog
8:53 AM 25.0 °F 18.1 °F 24.1 °F 96% 30.30 in 1.5 mi South 5.8 mph - N/A   Clear
9:16 AM 26.6 °F - 26.6 °F 100% 30.28 in 2.0 mi Calm Calm - N/A   Clear
9:53 AM 30.0 °F 21.1 °F 25.0 °F 82% 30.30 in 3.0 mi South 10.4 mph - N/A   Haze
10:53 AM 35.1 °F 27.9 °F 28.0 °F 76% 30.29 in 4.0 mi South 9.2 mph - N/A   Haze
11:53 AM 37.0 °F 29.8 °F 30.0 °F 76% 30.25 in 4.0 mi South 10.4 mph - N/A   Haze
12:53 PM 37.9 °F 30.9 °F 30.0 °F 73% 30.24 in 4.0 mi South 10.4 mph - N/A   Haze
1:53 PM 37.9 °F 32.1 °F 30.0 °F 73% 30.23 in 5.0 mi SSE 8.1 mph - N/A   Haze
2:53 PM 39.0 °F 33.4 °F 30.0 °F 70% 30.24 in 5.0 mi South 8.1 mph - N/A   Haze
3:53 PM 37.9 °F 33.5 °F 30.0 °F 73% 30.23 in 5.0 mi SSE 5.8 mph - N/A   Haze
4:53 PM 34.0 °F 29.8 °F 28.0 °F 79% 30.23 in 5.0 mi South 4.6 mph - N/A   Haze
5:53 PM 35.1 °F - 28.0 °F 76% 30.23 in 7.0 mi Calm Calm - N/A   Clear
6:53 PM 34.0 °F - 28.0 °F 79% 30.23 in 6.0 mi Calm Calm - N/A   Haze
7:53 PM 37.0 °F 33.3 °F 28.9 °F 73% 30.22 in 8.0 mi SE 4.6 mph - N/A   Partly Cloudy
8:53 PM 34.0 °F 28.8 °F 28.0 °F 79% 30.21 in 7.0 mi SSE 5.8 mph - N/A   Mostly Cloudy
9:53 PM 39.0 °F - 30.0 °F 70% 30.22 in 7.0 mi Calm Calm - N/A   Overcast
11:53 PM 36.0 °F 32.1 °F 30.9 °F 82% 30.21 in 7.0 mi South 4.6 mph - N/A   Overcast